[[{"header":{"parameterUnit":"m.s-1","parameterCategory":1,"la1":30.2991,"la2":30.254,"lo1":-89.0895,"lo2":-89.0444,"dy":0.0017,"dx":0.0017,"nx":28,"ny":28,"refTime":"2025-06-17T09:00:00:Z","depth":0,"parameterNumber":2,"parameterNumberName":"U-component_of_WINDS"},"data":[0,0,0,0,0,0,0,0,0,0,0,0,0,0,0,0,0,0,0,0,0,0,0,0,0,0,0,0,0,0,0,0,0,0,0,0,0,0,0,0,0,0,0,0,0,0,0,0,0,0,0,0,0,0,0,0,0,0,0.1419,0.1419,0,0.1399,0.1399,0.1399,0.1378,0.1378,0.1378,0.1377,0.1356,0.1356,0.1356,0,0,0,0,0,0,0,0,0,0,0,0,0,0.1439,0.1439,0.1419,0.1419,0.1419,0.1399,0.1399,0.1399,0.1378,0.1378,0.1378,0.1377,0.1356,0.1356,0.1356,0,0,0,0,0,0,0,0,0,0,0,0,0,0.1426,0.1439,0.1419,0.1406,0.1405,0.1399,0.1399,0.1398,0.1378,0.1378,0.1378,0.1377,0.1357,0.1356,0.1356,0.1361,0,0,0.1354,0.1354,0,0,0,0,0,0,0,0,0.1427,0.1425,0.1409,0.1407,0.1406,0.1391,0.1398,0.1386,0.1378,0.1388,0.1377,0.1377,0.1368,0.1367,0.1364,0.136,0.1359,0.1354,0.1354,0.1354,0.1354,0,0,0,0,0,0,0,0.1428,0.1426,0.1411,0.1408,0.1407,0.1401,0.1399,0.1396,0.1381,0.1388,0.1386,0.1384,0.1367,0.1364,0.1363,0.1359,0.1354,0.1354,0.1354,0.1353,0.1356,0.1356,0,0,0,0,0,0,0.1431,0.1427,0.1412,0.1411,0.1415,0.1401,0.1398,0.1396,0.1381,0.1378,0.1384,0.1383,0.1365,0.1364,0.1362,0.1366,0.1354,0.1353,0.1353,0.1356,0.1356,0.1356,0,0,0,0,0,0,0.1431,0.1429,0.1413,0.1418,0.1416,0.1401,0.1399,0.1396,0.1393,0.1378,0.1375,0.1384,0.1365,0.1363,0.1361,0.1365,0.1353,0.1353,0.1355,0.1356,0.1356,0.1374,0,0,0,0,0,0,0.1432,0.143,0.1432,0.1419,0.1416,0.1412,0.1399,0.1396,0.1392,0.139,0.1377,0.1375,0.1364,0.1362,0.136,0.1364,0.1352,0.1355,0.1355,0.1356,0.1373,0.1375,0.1377,0,0,0,0,0,0.1433,0.1438,0.1432,0.1431,0.1418,0.1413,0.1411,0.1399,0.1393,0.1394,0.1385,0.1375,0.1365,0.1362,0.136,0.1364,0.1354,0.1355,0.1356,0.1372,0.1375,0.1377,0,0,0,0,0,0,0.1453,0.1437,0.143,0.1431,0.1424,0.1409,0.1411,0.1402,0.1396,0.1395,0.138,0.1377,0.1376,0.137,0.1367,0.1367,0.1358,0.1359,0.1371,0.1373,0.1375,0.1377,0.1352,0,0,0,0,0,0.1458,0.1455,0.1441,0.1444,0.144,0.1426,0.1423,0.1415,0.1406,0.1403,0.1393,0.1385,0.1379,0.1376,0.1371,0.1372,0.1368,0.1374,0.1376,0.1377,0.1378,0.1376,0.1378,0.1359,0.1359,0.1359,0,0,0.1468,0.1458,0.1458,0.1447,0.144,0.1437,0.1424,0.1421,0.1418,0.1402,0.1399,0.1392,0.1381,0.1381,0.138,0.1375,0.1382,0.1378,0.138,0.1379,0.1377,0.1379,0.1381,0.1359,0.1359,0.1359,0,0,0.1484,0.1477,0.1478,0.1471,0.146,0.145,0.1451,0.1437,0.1432,0.1428,0.1416,0.1412,0.1404,0.1396,0.1391,0.1402,0.1393,0.1401,0.1411,0.141,0.1411,0.1413,0.1415,0.1417,0.1402,0.1402,0.1402,0,0.1497,0.1492,0.1479,0.1477,0.1472,0.1457,0.1457,0.1451,0.1439,0.1436,0.143,0.1418,0.141,0.1407,0.1409,0.1406,0.1405,0.1402,0.1412,0.1413,0.1414,0.1417,0.1418,0.1403,0.1402,0.1402,0.1402,0,0.1509,0.1505,0.1507,0.1495,0.1491,0.149,0.1476,0.1473,0.1464,0.1455,0.1451,0.1441,0.1432,0.143,0.1422,0.1425,0.1423,0.1415,0.1406,0.1417,0.1419,0.142,0.1404,0.1404,0.1403,0.1403,0,0,0.1538,0.1518,0.1518,0.1512,0.1498,0.1495,0.1493,0.1484,0.1481,0.1473,0.147,0.1462,0.1454,0.1449,0.144,0.1439,0.1446,0.1431,0.1431,0.1433,0.1447,0.1453,0.1454,0.144,0.144,0.144,0.1448,0,0.155,0.1545,0.1533,0.1532,0.1527,0.1512,0.151,0.1501,0.1492,0.1486,0.1476,0.1471,0.1462,0.1458,0.1457,0.1446,0.1449,0.1445,0.1436,0.1436,0.1439,0.1455,0.1461,0.1469,0.1449,0.1449,0.1449,0,0.1565,0.1557,0.1555,0.154,0.1538,0.1536,0.1526,0.1521,0.151,0.1503,0.1496,0.1486,0.1481,0.1473,0.1466,0.1464,0.1459,0.1453,0.1453,0.1452,0.1443,0.1453,0.1471,0.1472,0.145,0.145,0.145,0,0.1584,0.1573,0.157,0.1566,0.1548,0.1547,0.154,0.1528,0.1523,0.1514,0.1511,0.1502,0.1496,0.1489,0.1476,0.1472,0.147,0.1461,0.1464,0.1464,0.1464,0.1464,0.148,0.1462,0.1462,0.1462,0.1462,0,0.1599,0.1599,0.1579,0.1577,0.1575,0.156,0.1558,0.155,0.1539,0.1534,0.1521,0.1517,0.15,0.1494,0.1483,0.1478,0.1476,0.147,0.1467,0.1471,0.1472,0.1467,0.1466,0.1462,0.1462,0.1462,0.1462,0,0.1621,0.1608,0.1603,0.1587,0.1583,0.1582,0.1567,0.1564,0.1554,0.1549,0.1546,0.153,0.1522,0.1508,0.1496,0.1489,0.1486,0.1481,0.1489,0.1487,0.149,0.149,0.1504,0.1505,0.1487,0.1487,0.1487,0,0.1631,0.163,0.1613,0.1609,0.1602,0.1596,0.159,0.1575,0.157,0.1556,0.1554,0.1545,0.1537,0.1524,0.1511,0.1501,0.1496,0.1501,0.1494,0.1497,0.1495,0.1494,0.1494,0.1503,0.1503,0.1503,0.1504,0,0.165,0.1643,0.1636,0.1626,0.1619,0.1611,0.1601,0.1599,0.1581,0.1576,0.1567,0.1561,0.1548,0.1538,0.1526,0.1518,0.1507,0.1506,0.1506,0.1509,0.1513,0.151,0.1493,0.1506,0.1505,0.1505,0.1505,0.1505,0.1665,0.1662,0.165,0.1642,0.1633,0.1624,0.162,0.1609,0.1602,0.159,0.1581,0.1573,0.156,0.1543,0.1535,0.1528,0.1523,0.1523,0.1523,0.1523,0.1524,0.1515,0.1526,0.1525,0.1525,0.1525,0.1525,0,0.1682,0.1673,0.1665,0.1652,0.1646,0.1636,0.1625,0.162,0.1613,0.1602,0.1594,0.1583,0.1573,0.1559,0.1548,0.1544,0.1539,0.1542,0.1542,0.1539,0.1529,0.153,0.1546,0.1546,0.1546,0.1546,0.1546,0.1546,0.169,0.1685,0.1676,0.1666,0.1657,0.1648,0.1642,0.1634,0.1625,0.1613,0.1605,0.1596,0.1583,0.1571,0.1561,0.1557,0.1553,0.1557,0.1552,0.1542,0.154,0.1539,0.1539,0.1557,0.1557,0.1562,0.1562,0.1563]},{"header":{"parameterUnit":"m.s-1","parameterCategory":1,"la1":30.2991,"la2":30.254,"lo1":-89.0895,"lo2":-89.0444,"dy":0.0017,"dx":0.0017,"nx":28,"ny":28,"refTime":"2025-06-17T09:00:00:Z","depth":0,"parameterNumber":3,"parameterNumberName":"V-component_of_WINDS"},"data":[0,0,0,0,0,0,0,0,0,0,0,0,0,0,0,0,0,0,0,0,0,0,0,0,0,0,0,0,0,0,0,0,0,0,0,0,0,0,0,0,0,0,0,0,0,0,0,0,0,0,0,0,0,0,0,0,0,0,6.02,6.0201,0,6.0301,6.0302,6.0303,6.0262,6.0259,6.0257,6.0255,6.0351,6.0356,6.0361,0,0,0,0,0,0,0,0,0,0,0,0,0,5.9963,5.9968,6.02,6.0201,6.0202,6.0301,6.0302,6.0303,6.0262,6.0259,6.0256,6.0253,6.035,6.0356,6.0361,0,0,0,0,0,0,0,0,0,0,0,0,0,6.0065,5.9969,6.0199,6.0194,6.0194,6.03,6.0302,6.0304,6.0263,6.0259,6.0255,6.0252,6.0348,6.0355,6.0362,6.0478,0,0,6.0384,6.0387,0,0,0,0,0,0,0,0,6.006,6.0074,6.0193,6.0194,6.0195,6.0265,6.0254,6.0362,6.0264,6.0236,6.0254,6.025,6.0325,6.0334,6.0361,6.0483,6.0487,6.0385,6.0389,6.0392,6.0394,0,0,0,0,0,0,0,6.0053,6.0069,6.0239,6.0195,6.0196,6.0183,6.0194,6.0274,6.0299,6.0238,6.0236,6.0249,6.0325,6.0354,6.0363,6.0488,6.0385,6.0391,6.0395,6.0398,6.0708,6.0712,0,0,0,0,0,0,6.0046,6.0064,6.0236,6.0242,6.0117,6.0191,6.0202,6.0246,6.0298,6.0303,6.0252,6.0246,6.0343,6.0354,6.0366,6.0503,6.0392,6.0399,6.0403,6.0704,6.0709,6.0713,0,0,0,0,0,0,6.0041,6.0062,6.0232,6.0153,6.0173,6.0199,6.0248,6.025,6.0279,6.0308,6.0312,6.0277,6.0341,6.0356,6.045,6.0506,6.0402,6.0409,6.07,6.0706,6.0711,6.078,0,0,0,0,0,0,6.0035,6.0061,6.0107,6.0154,6.0178,6.0318,6.0251,6.0254,6.0292,6.0286,6.0333,6.0337,6.0339,6.044,6.0458,6.0514,6.0414,6.0695,6.0702,6.0709,6.0773,6.0788,6.0801,0,0,0,0,0,6.0026,6.0121,6.0109,6.013,6.0236,6.0321,6.0334,6.0336,6.0297,6.0342,6.0361,6.0336,6.0498,6.045,6.047,6.0529,6.0691,6.07,6.0709,6.0767,6.0785,6.08,0,0,0,0,0,0,6.0077,6.0127,6.0114,6.0228,6.0271,6.0314,6.0371,6.0355,6.0408,6.04,6.0399,6.0409,6.0507,6.0528,6.0474,6.0643,6.0588,6.0601,6.0626,6.0643,6.0657,6.0648,6.042,0,0,0,0,0,6.0102,6.0169,6.0208,6.0304,6.0327,6.0345,6.0382,6.038,6.0424,6.0441,6.0466,6.0508,6.0567,6.0607,6.0664,6.0777,6.0785,6.0827,6.0841,6.0852,6.0862,6.0921,6.094,6.0742,6.0742,6.0742,0,0,6.0153,6.0189,6.0231,6.0315,6.0348,6.0415,6.0361,6.0434,6.0483,6.0451,6.0542,6.0563,6.0608,6.0712,6.0759,6.0732,6.0919,6.0863,6.0872,6.0876,6.0932,6.0951,6.0968,6.0748,6.0747,6.0746,0,0,6.028,6.0315,6.0398,6.0433,6.0484,6.0496,6.0516,6.0562,6.0574,6.0667,6.0644,6.0701,6.0805,6.0837,6.0868,6.1007,6.0985,6.1026,6.1096,6.1153,6.1169,6.1183,6.123,6.1247,6.1036,6.1037,6.1037,0,6.0336,6.0438,6.0442,6.0517,6.0554,6.0531,6.0613,6.0646,6.0712,6.0737,6.0707,6.0836,6.0865,6.0976,6.101,6.1036,6.1056,6.1019,6.1167,6.1181,6.1194,6.1238,6.1257,6.1041,6.1041,6.104,6.104,0,6.0503,6.0574,6.0635,6.0702,6.0746,6.0824,6.0837,6.0881,6.0875,6.0889,6.0982,6.1016,6.1079,6.1105,6.11,6.1215,6.1196,6.1167,6.1111,6.1217,6.1259,6.1276,6.1047,6.1046,6.1044,6.1043,0,0,6.0663,6.0732,6.0754,6.0783,6.0839,6.0892,6.0969,6.1032,6.1068,6.1115,6.1177,6.1266,6.1239,6.1273,6.1271,6.1322,6.1427,6.1286,6.1287,6.1309,6.1553,6.1573,6.1593,6.1414,6.1418,6.142,6.1548,0,6.0792,6.0929,6.0934,6.1058,6.1122,6.1101,6.1167,6.1207,6.1222,6.1277,6.1293,6.1355,6.1316,6.1337,6.1386,6.1404,6.1476,6.1395,6.1469,6.1471,6.1456,6.1616,6.1637,6.1756,6.1565,6.1568,6.157,0,6.0961,6.1015,6.1145,6.119,6.1217,6.1277,6.1335,6.1389,6.1432,6.144,6.1479,6.1469,6.1545,6.1489,6.1591,6.1536,6.1566,6.158,6.1584,6.1589,6.1525,6.1622,6.1795,6.1812,6.1596,6.1594,6.1592,0,6.1061,6.1166,6.1258,6.1284,6.1339,6.1381,6.1406,6.1447,6.1484,6.1534,6.1558,6.1616,6.1646,6.169,6.1695,6.1654,6.1797,6.1742,6.1803,6.1803,6.1832,6.1829,6.2009,6.1856,6.1856,6.1855,6.1855,0,6.1203,6.1283,6.1303,6.1359,6.1447,6.1452,6.1538,6.1559,6.1596,6.1653,6.1639,6.1692,6.1698,6.1752,6.1757,6.1839,6.1854,6.186,6.186,6.186,6.1859,6.1878,6.1869,6.186,6.1859,6.1858,6.1857,0,6.1329,6.1347,6.1444,6.149,6.1503,6.1565,6.1603,6.1655,6.1669,6.1742,6.1759,6.1781,6.1845,6.1855,6.193,6.1933,6.2031,6.2023,6.2017,6.2015,6.2074,6.2067,6.227,6.2296,6.2128,6.213,6.2131,0,6.1417,6.1479,6.1531,6.157,6.1597,6.166,6.1698,6.1705,6.1745,6.18,6.1844,6.1907,6.1957,6.206,6.208,6.2137,6.2129,6.2196,6.2137,6.2135,6.2127,6.2122,6.2127,6.2206,6.2208,6.221,6.2211,0,6.1571,6.1577,6.1634,6.1695,6.1742,6.179,6.1834,6.1866,6.1878,6.1924,6.199,6.203,6.2106,6.2167,6.2224,6.2246,6.223,6.223,6.2246,6.2246,6.2239,6.2241,6.2045,6.2224,6.2223,6.2222,6.2221,6.2221,6.1679,6.1732,6.1777,6.1841,6.1876,6.1919,6.1969,6.1991,6.2047,6.2111,6.2112,6.2183,6.2224,6.2298,6.2324,6.2379,6.2357,6.2381,6.2387,6.2392,6.2397,6.2233,6.2389,6.2389,6.2389,6.2388,6.2388,0,6.183,6.1858,6.1918,6.1982,6.2032,6.2016,6.2064,6.2106,6.217,6.2211,6.2261,6.2336,6.2395,6.2422,6.248,6.2518,6.2512,6.2532,6.2528,6.2533,6.2415,6.2394,6.2536,6.2536,6.2536,6.2536,6.2536,6.2536,6.1914,6.2002,6.2013,6.2117,6.2145,6.2217,6.2245,6.2283,6.2316,6.2401,6.2451,6.2469,6.2503,6.2563,6.2616,6.2622,6.2643,6.2667,6.2669,6.2557,6.2542,6.2527,6.2507,6.2672,6.2672,6.2782,6.2783,6.2784]}]]